Location: Bagnara
(41.0500°N, 14.7833°E)
Time: 15:23:34
(UTC+00:00)

Meteor 1-10 Rocket - Pass Details

Date: 20 June 2021
Orbit: 835 x 911 km, 81.3° (Epoch: 05 August)

Event Time Altitude Azimuth Distance (km) Brightness Sun altitude
Rises 02:30:52 0° 349° (NNW) 3,531 7.9 -9.4°
Reaches altitude 10° 02:33:21 10° 348° (NNW) 2,578 7.2 -9.1°
Maximum altitude 02:39:13 79° 263° (W) 904 4.3 -8.3°
Drops below altitude 10° 02:44:56 10° 177° (S) 2,510 6.3 -7.4°
Sets 02:47:20 0° 176° (S) 3,432 7.0 -7.1°
